Location: Tamazert
(32.6352°N, 5.2072°W)
Time: 04:14:15
(UTC+00:00)

Vanguard 2 Rocket - Pass Details

Date: 04 October 2022
Orbit: 555 x 3321 km, 32.9° (Epoch: 05 December)

Event Time Altitude Azimuth Distance (km) Brightness Sun altitude
Rises 21:30:37 0° 236° (SW) 7,268 11.8 -43.6°
Reaches altitude 10° 21:35:50 10° 233° (SW) 6,119 11.2 -44.5°
Enters shadow 21:48:45 47° 212° (SSW) 3,292 9.4 -46.8°
Maximum altitude 21:53:52 63° 158° (SSE) 2,608 - -47.7°
Drops below altitude 10° 22:04:50 10° 81° (E) 3,919 - -49.6°
Sets 22:07:24 0° 77° (ENE) 4,609 - -50.0°
